Volver al catálogo

STARLINK-2640

ActivoComunicacionesVLEO
NORAD 48438·PAYLOAD·🇺🇸 United States

Lanzado May 9, 2021 desde Cape Canaveral Space Force Station

Loading…

Próximos Pases (próximas 24 horas)

TLE

ActualizadoSource: CelesTrak SupGP

Época: Sep 14, 2026, 19:58 UTC

1 48438C 21040L   26257.83243056  .00040600  00000+0  13055-2 0  2579
2 48438  53.1615  17.9846 0001115  79.5794  97.1385 15.31683444    17

Sigue STARLINK-2640 en tiempo real con AllMySat

Download on the App Store